KI4AMD-13 Weather Reports


Display with metric or nautical units.
time (UTC)temp
F
wind
direction
speed
MPH
gust
MPH
rain 1hr
in
rain 24hr
in
rain mn
in
humidity
%
barometer
mb
20260510231601 0 0 0.0 0.0 0.00 0.01 0.01 1016.9
20260510230058 0 0 0.0 0.0 0.00 0.01 0.01 1016.9
20260510224607 0 0 0.0 0.0 0.00 0.01 0.01 1016.8
20260510223059 0 248 0.0 1.0 0.00 0.01 0.01 1017.0
20260510221602 0 164 0.0 1.0 0.00 0.01 0.01 1016.9
20260510220059 0 239 0.0 2.0 0.00 0.01 0.01 1016.8
20260510214558 0 0 0.0 1.0 0.01 0.01 0.01 1016.7
20260510213108 0 0 0.0 0.0 0.01 0.01 0.01 1016.9
20260510211636 0 0 0.0 2.0 0.01 0.01 0.01 1016.9
20260510210101 0 242 1.0 3.0 0.01 0.01 0.01 1017.2
20260510204601 0 261 1.0 4.0 0.00 0.00 0.00 1017.4
20260510203100 0 259 0.0 4.0 0.00 0.00 0.00 1017.0
20260510201558 0 257 1.0 4.0 0.00 0.00 0.00 1016.8
20260510200059 0 177 2.0 4.0 0.00 0.00 0.00 1016.8
20260510194618 0 224 1.0 3.0 0.00 0.00 0.00 1016.9
20260510193059 0 252 2.0 4.0 0.00 0.00 0.00 1016.9
20260510191619 0 234 1.0 5.0 0.00 0.00 0.00 1016.8
20260510190108 0 253 2.0 4.0 0.00 0.00 0.00 1017.1
20260510184559 0 257 2.0 4.0 0.00 0.00 0.00 1017.1
20260510183104 0 257 1.0 4.0 0.00 0.00 0.00 1017.2
20260510181558 0 250 1.0 3.0 0.00 0.00 0.00 1017.2
20260510180103 0 119 0.0 1.0 0.00 0.00 0.00 1017.2
20260510174607 0 0 0.0 1.0 0.00 0.00 0.00 1017.6
20260510173104 0 0 0.0 0.0 0.00 0.00 0.00 1017.7
20260510171558 0 242 0.0 1.0 0.00 0.00 0.00 1017.9
20260510170114 0 0 0.0 2.0 0.00 0.00 0.00 1018.0
20260510164624 0 0 0.0 1.0 0.00 0.00 0.00 1018.0
20260510163102 0 0 0.0 1.0 0.00 0.00 0.00 1018.1
20260510161559 0 0 0.0 0.0 0.00 0.00 0.00 1018.2
20260510160129 0 0 0.0 0.0 0.00 0.00 0.00 1018.2
20260510154606 0 0 0.0 0.0 0.00 0.00 0.00 1018.3
20260510153057 0 0 0.0 0.0 0.00 0.00 0.00 1018.2
20260510151601 0 0 0.0 0.0 0.00 0.00 0.00 1018.2
20260510144617 0 0 0.0 0.0 0.00 0.00 0.00 1018.2
20260510143100 0 0 0.0 0.0 0.00 0.00 0.00 1018.1
20260510141559 0 0 0.0 0.0 0.00 0.00 0.00 1018.3
20260510140100 0 0 0.0 0.0 0.00 0.00 0.00 1018.2
20260510134556 0 0 0.0 0.0 0.00 0.00 0.00 1018.2
20260510133058 0 0 0.0 0.0 0.00 0.00 0.00 1018.2
20260510131559 0 0.0 0.0 0.00 0.00 0.00 1018.4
20260510130059 0 0.0 0.0 0.00 0.00 0.00 1018.3
20260510124612 0 0.0 0.0 0.00 0.00 0.00 1018.3
20260510123058 0 0.0 0.0 0.00 0.00 0.00 1018.2
20260510121557 0 0.0 0.0 0.00 0.00 0.00 1018.1
20260510120057 0 0.0 0.0 0.00 0.00 0.00 1017.9
20260510114559 0 0.0 0.0 0.00 0.00 0.00 1017.5
20260510113104 0 0.0 0.0 0.00 0.00 0.00 1017.4
20260510111557 0 0.0 0.0 0.00 0.00 0.00 1017.4
20260510110058 0 0.0 0.0 0.00 0.00 0.00 1017.2
20260510104604 0 0.0 0.0 0.00 0.00 0.00 1016.7
20260510103059 0 0.0 0.0 0.00 0.00 0.00 1016.4
20260510101601 0 0.0 0.0 0.00 0.00 0.00 1016.2
20260510100057 0 0.0 0.0 0.00 0.00 0.00 1016.0
20260510094611 0 0.0 0.0 0.00 0.00 0.00 1015.9
20260510093119 0 0.0 0.0 0.00 0.00 0.00 1015.8
20260510091600 0 0.0 0.0 0.00 0.00 0.00 1015.6
20260510090110 0 0.0 0.0 0.00 0.00 0.00 1015.7
20260510084601 0 0.0 0.0 0.00 0.00 0.00 1015.5
20260510083100 0 0.0 0.0 0.00 0.00 0.00 1015.4
20260510081557 0 0.0 0.0 0.00 0.00 0.00 1015.2
20260510080056 0 0.0 0.0 0.00 0.00 0.00 1015.0
20260510074558 0 0.0 0.0 0.00 0.00 0.00 1014.9
20260510073058 0 0.0 0.0 0.00 0.00 0.00 1014.7
20260510071557 0 0.0 0.0 0.00 0.00 0.00 1014.7
20260510070058 0 0.0 0.0 0.00 0.00 0.00 1014.7
20260510064557 0 0.0 0.0 0.00 0.00 0.00 1014.7
20260510063100 0 0.0 0.0 0.00 0.00 0.00 1014.5
20260510061557 0 0 0.0 0.0 0.00 0.00 0.00 1014.6
20260510060058 0 0 0.0 0.0 0.00 0.00 0.00 1014.6
20260510054600 0 0 0.0 0.0 0.00 0.00 0.00 1014.6
20260510053104 0 0 0.0 0.0 0.00 0.00 0.00 1014.7
20260510051559 0 0 0.0 0.0 0.00 0.00 0.00 1014.6
20260510050100 0 0 0.0 0.0 0.00 0.00 0.00 1014.6
20260510044557 0 0 0.0 0.0 0.00 0.00 0.00 1014.4
20260510043105 0 0 0.0 0.0 0.00 0.00 0.00 1014.4
20260510041559 0 0 0.0 0.0 0.00 0.00 0.00 1014.4
20260510040101 0 0 0.0 0.0 0.00 0.00 0.00 1014.3
20260510034556 0 0 0.0 0.0 0.00 0.00 0.00 1014.3
20260510033107 0 0 0.0 0.0 0.00 0.00 0.00 1014.3
20260510031600 0 0 0.0 0.0 0.00 0.00 0.00 1014.3
20260510030104 0 0 0.0 0.0 0.00 0.00 0.00 1014.2
20260510024606 0 0 0.0 0.0 0.00 0.00 0.00 1014.1
20260510023057 0 0 0.0 0.0 0.00 0.00 0.00 1014.0
20260510021601 0 0 0.0 0.0 0.00 0.00 0.00 1013.9
20260510020100 0 0 0.0 0.0 0.00 0.00 0.00 1013.7
20260510014559 0 0 0.0 0.0 0.00 0.00 0.00 1013.5
20260510013057 0 0 0.0 0.0 0.00 0.00 0.00 1013.1
20260510011557 0 0 0.0 0.0 0.00 0.00 0.00 1012.8
20260510010059 0 0 0.0 0.0 0.00 0.00 0.00 1012.5
20260510004602 0 0 0.0 0.0 0.00 0.00 0.00 1012.2
20260510003058 0 0 0.0 0.0 0.00 0.00 0.00 1012.0
20260510001557 0 0 0.0 1.0 0.00 0.00 0.00 1011.9
20260509234558 0 255 0.0 1.0 0.00 0.00 0.00 1011.9
20260509233058 0 255 1.0 3.0 0.00 0.00 0.00 1011.9